Location: Nelson
(41.2830°S, 173.2830°E)
Time: 12:46:55
(UTC+13:00)

Daily predictions for brighter satellites

Satellite Brightness Start Highest point End
(mag) Time Altitude Azimuth Time Altitude Azimuth Time Altitude Azimuth
NOAA 12 4.1 20:14:01 10° SSE 20:19:22 83° ENE 20:24:39 10° NNW
Cosmos 1703 3.4 20:20:18 10° N 20:24:13 85° W 20:28:11 10° S
Cosmos 1354 Rocket 4.1 20:24:11 10° NNW 20:29:29 86° ENE 20:34:54 10° SSE
Cosmos 1605 Rocket 4.0 20:26:53 10° N 20:33:00 83° E 20:39:17 10° S
Cosmos 1833 Rocket 4.4 20:31:02 10° ENE 20:33:09 12° E 20:35:17 10° ESE
Cosmos 1867 3.9 20:31:11 10° SSW 20:36:30 52° SE 20:41:44 10° NE
Envisat 3.1 20:31:19 10° SSE 20:36:31 85° WSW 20:41:37 10° NNW
Cosmos 1340 Rocket 3.1 20:32:48 10° SSW 20:36:51 71° W 20:40:47 10° N
Meteor 2-10 Rocket 4.3 20:42:05 10° SSW 20:47:55 64° W 20:53:32 10° N
Cosmos 2173 Rocket 4.3 20:44:47 10° NNE 20:50:27 42° E 20:56:12 10° SSE
Cosmos 1777 Rocket 4.5 20:45:44 10° N 20:50:34 39° ENE 20:55:28 10° SE
CZ-2D R/B 3.5 20:47:39 10° SSE 20:51:25 47° E 20:55:08 10° N
Cosmos 1939 Rocket 3.1 20:49:32 10° SSE 20:53:19 44° E 20:57:04 10° N
YAOGAN 1 2.6 20:51:07 10° SSE 20:55:33 88° ENE 20:59:54 10° NNW
CZ-4C R/B 2.9 20:49:43 10° NNW 20:57:50 67° ENE 21:04:59 10° SE
Cosmos 1802 Rocket 4.4 20:55:05 10° NNE 21:00:55 42° E 21:06:43 10° SSE
Cosmos 1869 3.8 20:59:04 10° S 21:02:59 43° ESE 21:05:39 18° NE
CSL-04 Rocket 3.7 20:58:17 10° SSE 21:03:54 88° ENE 21:09:29 10° NNW
Cosmos 2082 Rocket 3.7 21:05:23 16° E 21:05:23 16° E 21:08:23 10° ESE
GPS 2-04 Rocket1 3.5 21:04:55 10° NW 21:07:57 28° N 21:09:00 24° NE
DELTA 2 R/B (1) 3.6 21:02:29 10° WNW 21:08:08 73° N 21:12:30 17° E
Cosmos 2221 3.0 21:05:47 10° SSW 21:10:09 64° W 21:14:26 10° N
PSLV R/B 3.8 21:08:32 10° W 21:10:57 31° NNW 21:11:38 26° N
Cosmos 1766 Rocket 4.5 21:09:15 21° NE 21:11:12 29° E 21:15:08 10° SSE
Cosmos 1892 3.7 21:11:35 25° ENE 21:12:28 28° E 21:15:48 10° SSE
Lacrosse 4 Rocket 3.8 21:10:55 10° SSE 21:12:36 12° SE 21:14:16 10° ESE
BREEZE-M DEB (TANK) 3.8 21:15:43 10° SW 21:17:31 17° SSE 21:19:47 10° ESE
DMSP B5D2-2 4.3 21:12:45 10° N 21:17:58 74° WNW 21:23:16 10° SSW
Cosmos 1076 Rocket 3.6 21:14:10 10° NNW 21:18:28 76° W 21:22:48 10° S
Cosmos 2100 Rocket 3.9 21:12:30 10° N 21:18:41 77° E 21:25:00 10° S
Ariane Rocket 3.0 21:14:01 10° SSE 21:19:07 61° ENE 21:24:09 10° N
USA 229 DEB 3.6 21:13:39 10° SW 21:20:35 90° NW 21:25:18 20° NNE
USA 229 3.6 21:13:41 10° SW 21:20:38 89° SE 21:25:22 21° NE
ATLAS CENTAUR R/B 3.9 21:05:08 10° NW 21:21:26 83° SW 21:27:03 10° SE
Cosmos 1697 Rocket 3.9 21:16:43 10° S 21:21:28 26° SE 21:23:50 20° E
BREEZE-M DEB (TANK) 4.4 21:18:31 10° SW 21:22:41 51° SSE 21:34:09 14° E
NOAA 11 4.2 21:17:25 10° SSE 21:23:02 85° ENE 21:28:33 10° NNW
COSMOS 2406 3.1 21:17:28 10° NNW 21:23:09 74° ENE 21:28:51 10° SSE
Okean 3 Rocket 3.7 21:19:48 16° NNE 21:23:12 52° E 21:27:32 10° SSE
Cosmos 2058 2.8 21:20:04 10° N 21:24:15 88° E 21:28:28 10° S
CZ-4 R/B 3.5 21:21:46 10° S 21:25:15 29° WSW 21:28:47 10° NW
MOS 1 Rocket 4.1 21:24:44 27° ENE 21:26:29 36° ESE 21:31:06 10° S
NOSS 3-1 (A) 3.5 21:20:26 10° SSW 21:26:48 60° SE 21:29:46 28° ENE
FREGAT/IRIS 2.7 21:24:35 10° SSE 21:27:07 47° ESE 21:27:07 47° ESE
In-Cosmos 22 Rocket 4.3 21:22:31 10° N 21:28:14 64° E 21:34:06 10° SSE
Meteor 2-20 Rocket 4.4 21:22:07 10° S 21:28:20 88° ESE 21:34:00 12° N
USA 186 2.3 21:28:54 10° SSE 21:31:59 41° E 21:31:59 41° E
USA 215 3.7 21:26:25 10° ESE 21:32:25 36° NE 21:38:23 10° NNW
Cosmos 2016 Rocket 4.0 21:29:14 10° N 21:35:34 67° E 21:41:55 10° SSE
Cosmos 2151 3.0 21:36:44 32° NNE 21:38:34 60° E 21:42:50 10° SSE
CZ-2C R/B 4.4 21:35:08 10° SE 21:38:41 22° E 21:38:41 22° E
MOS 1 4.3 21:34:39 10° SSE 21:40:22 59° ENE 21:44:50 17° N
MONITOR-E 4.2 21:37:53 10° S 21:40:44 66° WSW 21:41:27 44° NW
NOSS 3-1 (C) 3.4 21:35:03 10° SW 21:41:20 72° WNW 21:44:19 29° NNE
SJ-6B 3.2 21:37:45 10° SSE 21:41:45 43° E 21:41:47 43° E
Atlas 2A Centaur Rocket 4.4 21:14:25 10° WNW 21:43:10 38° NNW 21:46:52 26° NNE
CZ-2C R/B 2.8 21:39:24 17° N 21:43:28 70° WNW 21:48:43 10° SSW
SL-08 R/B 4.5 21:38:54 17° N 21:43:47 65° E 21:50:04 10° SSE
ISS -1.3 21:47:18 10° WSW 21:50:05 23° SSW 21:52:54 10° SE
BREEZE-M R/B 4.0 21:39:26 10° WSW 21:50:41 61° SSE 21:51:48 41° ESE
IRS-1A Rocket 4.3 21:46:36 10° SSE 21:52:26 85° WSW 21:58:05 10° NNW
Cosmos 1656 3.6 21:48:50 10° SSW 21:54:35 77° ESE 21:56:36 42° NE
Cosmos 1408 3.8 21:57:07 30° SE 21:57:07 30° SE 21:59:15 10° SSE
Cosmos 1356 Rocket 3.9 21:55:30 10° SSW 21:59:37 57° W 22:00:59 37° NNW
Cosmos 2278 4.1 21:59:28 10° SSW 22:04:58 45° ESE 22:05:57 41° E
SPOT 3 Rocket 3.5 22:01:41 10° SSE 22:06:53 64° ENE 22:07:46 54° NNE
STPSAT 2 (USA 217) 4.5 22:06:17 60° N 22:07:03 77° ENE 22:11:41 10° SSE
NOSS 2-3 (C) 4.2 22:04:23 10° SW 22:11:14 85° SE 22:12:32 56° NE
Cosmos 2061 Rocket 4.4 22:05:42 10° NNW 22:11:52 62° W 22:18:12 10° S
Cosmos 1980 Rocket 2.9 22:09:00 10° S 22:14:12 36° ESE 22:14:45 36° ESE
Resurs 01 Rocket 3.2 22:12:01 10° SSE 22:14:09 24° SE 22:14:09 24° SE
Cosmos 1833 Rocket 2.6 22:10:32 10° NNW 22:16:12 87° WSW 22:21:57 10° SSE
Cosmos 1680 Rocket 3.5 22:14:31 10° SSW 22:19:51 63° ESE 22:20:09 62° E
Cosmos 1743 Rocket 4.5 22:22:33 38° SE 22:22:33 38° SE 22:25:33 10° SSE
Cosmos 1515 Rocket 3.9 22:17:17 10° S 22:21:09 57° SE 22:21:09 57° SE
H-2A R/B 1.8 22:17:24 10° SSE 22:22:27 84° E 22:23:03 70° N
Resurs 1-3 4.4 22:19:28 10° SSE 22:22:30 40° SE 22:22:30 40° SE
SJ 16-02 3.4 22:27:05 17° SE 22:27:05 17° SE 22:28:18 10° SSE
Tsikada Rocket 4.0 22:18:32 10° S 22:24:49 82° W 22:26:43 47° N
Genesis I 4.2 22:23:45 10° SW 22:27:02 41° W 22:27:02 41° W
Mayak 0.5 22:30:32 23° SE 22:30:32 23° SE 22:32:47 10° S
EO 1 Del DPAF 4.0 22:29:46 50° WSW 22:29:46 50° WSW 22:33:01 10° SSW
Meteor 2-3 Rocket 4.0 22:30:36 51° ESE 22:30:36 51° ESE 22:35:40 10° SSE
Cosmos 1151 Rocket 3.4 22:29:45 10° SSW 22:33:48 59° WSW 22:33:48 59° WSW
Cosmos 923 Rocket 4.0 22:28:44 10° SSW 22:34:09 75° WNW 22:34:36 70° NNW
ATLAS CENTAUR Rocket 4.0 22:02:33 10° WNW 22:36:53 42° NNW 22:38:38 39° N
Cosmos 1606 4.3 22:36:09 10° S 22:38:19 30° S 22:38:19 30° S
Cosmos 1825 3.8 22:44:05 33° SSW 22:44:05 33° SSW 22:46:26 10° S
Meteor 1-26 Rocket 4.3 22:40:15 10° S 22:45:15 62° SE 22:45:15 62° SE
Thor Agena Rocket 3.9 22:45:28 52° WNW 22:45:50 54° W 22:50:53 10° SSW
CZ-4C R/B 4.4 22:39:52 10° WNW 22:46:53 34° SW 22:53:04 10° SSE
Cosmos 2082 Rocket 2.3 22:47:05 50° NW 22:48:32 71° WSW 22:54:12 10° SSE
ARGOS 3.5 22:46:31 10° S 22:51:54 61° WSW 22:52:58 51° WNW
Lacrosse 4 Rocket 2.5 22:47:30 10° SSW 22:50:47 47° SSW 22:50:47 47° SSW
DELTA 2 R/B (1) 4.1 22:48:52 10° W 22:53:16 52° WNW 22:53:16 52° WNW
Cosmos 2233 Rocket 4.5 22:55:04 39° NW 22:57:17 58° W 23:03:32 10° S
Cosmos 2228 Rocket 4.1 22:53:53 10° S 22:57:11 46° SSW 22:57:11 46° SSW
Lacrosse 5 rocket 4.4 23:04:11 10° SE 23:04:11 10° SE 23:04:13 10° SE
Cosmos 1697 Rocket 3.3 23:00:13 10° SW 23:05:35 48° WNW 23:05:35 48° WNW
Cosmos 2360 4.4 23:02:01 10° SSW 23:07:12 67° WSW 23:07:12 67° WSW
USA 215 3.5 23:09:06 10° SE 23:15:38 66° SW 23:22:09 10° WNW
SL-16 R/B 3.3 23:11:45 10° S 23:16:05 34° SE 23:16:05 34° SE
Cosmos 1898 Rocket 4.2 23:17:36 52° WSW 23:17:36 52° WSW 23:22:38 10° S
CZ-2C R/B 3.9 23:14:17 10° S 23:19:24 47° WSW 23:19:45 47° W
Cosmos 2034 Rocket 4.5 23:25:24 53° SE 23:25:24 53° SE 23:30:26 10° SSE
ISS -0.2 23:25:46 10° SW 23:26:03 11° SSW 23:26:03 11° SSW
Cosmos 2322 Rocket 3.3 23:39:35 10° SSW 23:43:34 40° SSE 23:43:34 40° SSE
USA 267 3.4 23:49:25 69° S 23:49:25 69° S 23:55:28 10° SW
Resurs 01 Rocket 3.9 23:48:57 10° SSW 23:51:43 21° SW 23:51:43 21° SW
Cosmos 2360 Rocket 3.8 23:47:26 10° S 23:51:06 28° SSE 23:51:06 28° SSE
